Location: Rowland
(34.5359°N, 79.2929°W)
Time: 17:50:47
(UTC+00:00)

S-56A Canister/Altair - Pass Details

Date: 10 October 2022
Orbit: 638 x 2494 km, 38.9° (Epoch: 06 December)

Event Time Altitude Azimuth Distance (km) Brightness Sun altitude
Rises 03:14:05 0° 232° (SW) 6,108 12.2 -52.3°
Reaches altitude 10° 03:18:04 10° 230° (SW) 5,144 11.7 -52.9°
Enters shadow 03:21:28 20° 228° (SW) 4,335 11.2 -53.4°
